Showing default

CTC-0, 62401

Orbit data source: Space-Track

CTC-0, 62401 is an American payload satellite in LEO that was launched on Sat, 21 Dec 2024 UTC via an FALCON 9 launch vehicle from the Air Force Western Test Range (AFWTR). Payload-class satellites include a variety of spacecraft equipped with specific instruments for various scientific and technological missions. These include communications satellites like Starlink; space stations such as the ISS; scientific satellites like the Hubble; Earth observation satellites from companies like Planet Labs, Umbra, and HawkEye 360; GPS; miniature CubeSats for education and research; and military/defense satellites.

Loading next visibility...
Identifier
62401, 2024-247AA
Orbit
LEO
Country
Flag of USUS
Related business
None
Manufacturer
Endurosat
Mission
Operational Commercial Communications
Bus & Motor
CUBESAT 8U, Unknown motor
Mass
9.75 kg wet, 9.75 kg dry
Launch date (UTC)
2024-12-21 (10 months ago)
Launch vehicle
FALCON 9
Launch site
Air Force Western Test Range (AFWTR)
Object type
Payload
Rocket body
Debris
Shape & HBR
Box, 0.3 m
Radar Cross Section
0.154 m², Small (<0.1 m²)

Expand to show TLE details & history
Last TLE update: 13 hours ago

TLE from 13 hours ago
0 CTC-0
1 62401U 24247AA  25297.92979672  .00021784  00000-0  74990-3 0  9992
2 62401  44.9741 129.3414 0004297 262.7468  97.2927 15.29735878 47074
Epoch: 2025-10-24T22:18Z
TLE epoch observation values (Epoch: 2025-10-24T22:18:54.436Z)
Latitude
-0.00003°
Longitude
121.04691°
Altitude
476.972 km
Speed
7.629 km/s
True Right ascension
08h 37m 21s
True Declination
0° 00' 00"
Sunlit
Object was in daylight at epoch
Visualization orbit readout
Latitude
Unknown
Longitude
Unknown
Altitude
Unknown
Speed
Unknown
Apparent Right ascension
Unknown
Apparent Declination
Unknown
Sunlit
N/A
Visualization observer readout
Local Sidereal Time
06:14:11
Azimuth
Unknown
Elevation
Unknown
Doppler factor
Unknown
Orbital elements
Apogee altitude
481.162 km
Perigee altitude
475.27 km
Semi-major axis
6,856.353 km
Eccentricity
0.00043
Inclination
44.9741°
RAAN
129.3414°
Arg. of periapsis
262.7468°
True anomaly
97.34154°
Mean anomaly
97.2927°
Eccentric anomaly
97.31712°
Mean motion
3.82299 °/min
Orbital period
94.17 mins
BSTAR
0.0007499
Loading maneuver chart data...
Computing Atmospheric mass density...
Loading historical data...
Loading historical data...
Loading historical data...
Loading historical data...
Loading historical data...
Loading historical data...
Loading historical data...

Documentation

Showing up to 5 results
|